START_TIME,STEP,MOV.,P1,t_acc.,E44,t_acc.,A3,t_acc.,P10,t_acc.
1989-08-26T12:00:23.900 ,2,0,0.,1.2,0.,1.2,0.,1.2,0.,1.2
1989-08-26T12:00:25.100 ,2,0,0.,1.2,0.,1.2,0.,1.2,0.,1.2
1989-08-26T12:00:26.300 ,2,0,0.,1.2,0.,1.2,0.,1.2,0.,1.2
1989-08-26T12:00:27.500 ,2,0,0.,1.2,0.,1.2,0.,1.2,0.,1.2
1989-08-26T12:00:28.700 ,2,0,0.,1.2,0.,1.2,0.,1.2,0.,1.2
1989-08-26T12:00:29.900 ,2,0,0.,1.2,0.,1.2,0.,1.2,0.,1.2
1989-08-26T12:00:31.100 ,2,0,0.,1.2,0.,1.2,0.,1.2,0.,1.2
1989-08-26T12:00:32.300 ,2,0,0.,1.2,0.,1.2,0.,1.2,0.,1.2
1989-08-26T12:00:33.500 ,2,0,0.,1.2,0.,1.2,0.,1.2,0.,1.2
1989-08-26T12:00:34.700 ,2,0,0.,1.2,0.,1.2,0.,1.2,0.,1.2
1989-08-26T12:00:35.900 ,2,0,0.,1.2,0.,1.2,0.,1.2,0.,1.2
1989-08-26T12:00:37.100 ,2,0,0.,1.2,0.,1.2,0.,1.2,0.,1.2
1989-08-26T12:00:38.300 ,2,0,0.,1.2,0.,1.2,0.,1.2,0.,1.2
1989-08-26T12:00:39.500 ,2,0,0.,1.2,0.,1.2,0.,1.2,0.,1.2
1989-08-26T12:00:40.700 ,2,0,0.,1.2,0.,1.2,0.,1.2,0.,1.2
1989-08-26T12:00:41.900 ,2,0,0.,1.2,0.,1.2,0.,1.2,0.,1.2
1989-08-26T12:00:43.100 ,2,0,0.,1.2,0.,1.2,0.,1.2,0.,1.2
1989-08-26T12:00:44.300 ,2,0,1.,1.2,0.,1.2,0.,1.2,0.,1.2
1989-08-26T12:00:45.500 ,2,0,0.,1.2,0.,1.2,0.,1.2,0.,1.2
1989-08-26T12:00:46.700 ,2,0,0.,1.2,0.,1.2,0.,1.2,0.,1.2
1989-08-26T12:00:47.900 ,1,0,0.,1.2,0.,1.2,0.,1.2,0.,1.2
1989-08-26T12:00:49.100 ,1,0,0.,1.2,0.,1.2,0.,1.2,0.,1.2
1989-08-26T12:00:50.300 ,1,0,0.,1.2,0.,1.2,0.,1.2,0.,1.2
1989-08-26T12:00:51.500 ,1,0,1.,1.2,0.,1.2,0.,1.2,0.,1.2
1989-08-26T12:00:52.700 ,1,0,0.,1.2,0.,1.2,0.,1.2,0.,1.2
1989-08-26T12:00:53.900 ,1,0,0.,1.2,0.,1.2,0.,1.2,0.,1.2
1989-08-26T12:00:55.100 ,1,0,0.,1.2,0.,1.2,0.,1.2,0.,1.2
1989-08-26T12:00:56.300 ,1,0,1.,1.2,0.,1.2,0.,1.2,0.,1.2
1989-08-26T12:00:57.500 ,1,0,0.,1.2,0.,1.2,0.,1.2,0.,1.2
1989-08-26T12:00:58.700 ,1,0,0.,1.2,0.,1.2,0.,1.2,0.,1.2
1989-08-26T12:00:59.900 ,1,0,0.,1.2,0.,1.2,0.,1.2,0.,1.2
1989-08-26T12:01:01.100 ,1,0,0.,1.2,0.,1.2,0.,1.2,0.,1.2
1989-08-26T12:01:02.300 ,1,0,0.,1.2,0.,1.2,0.,1.2,0.,1.2
1989-08-26T12:01:03.500 ,1,0,0.,1.2,0.,1.2,0.,1.2,0.,1.2
1989-08-26T12:01:04.700 ,1,0,0.,1.2,0.,1.2,0.,1.2,0.,1.2
1989-08-26T12:01:05.900 ,1,0,0.,1.2,0.,1.2,0.,1.2,0.,1.2
1989-08-26T12:01:07.100 ,1,0,0.,1.2,0.,1.2,0.,1.2,0.,1.2
1989-08-26T12:01:08.300 ,1,0,0.,1.2,0.,1.2,0.,1.2,0.,1.2
1989-08-26T12:01:09.500 ,1,0,0.,1.2,0.,1.2,0.,1.2,0.,1.2
1989-08-26T12:01:10.700 ,1,0,0.,1.2,0.,1.2,0.,1.2,0.,1.2
1989-08-26T12:01:11.900 ,1,0,0.,1.2,0.,1.2,0.,1.2,0.,1.2
1989-08-26T12:01:13.100 ,1,0,0.,1.2,0.,1.2,0.,1.2,0.,1.2
1989-08-26T12:01:14.300 ,1,0,0.,1.2,0.,1.2,0.,1.2,0.,1.2
1989-08-26T12:01:15.500 ,1,0,0.,1.2,0.,1.2,0.,1.2,0.,1.2
1989-08-26T12:01:16.700 ,1,0,0.,1.2,0.,1.2,0.,1.2,0.,1.2
1989-08-26T12:01:17.900 ,1,0,1.,1.2,0.,1.2,0.,1.2,0.,1.2
1989-08-26T12:01:19.100 ,1,0,0.,1.2,0.,1.2,0.,1.2,0.,1.2
1989-08-26T12:01:20.300 ,1,0,0.,1.2,0.,1.2,0.,1.2,0.,1.2
1989-08-26T12:01:21.500 ,1,0,0.,1.2,0.,1.2,0.,1.2,0.,1.2
1989-08-26T12:01:22.700 ,1,0,0.,1.2,0.,1.2,0.,1.2,0.,1.2
1989-08-26T12:01:23.900 ,1,0,0.,1.2,0.,1.2,0.,1.2,0.,1.2
1989-08-26T12:01:25.100 ,1,0,0.,1.2,0.,1.2,0.,1.2,0.,1.2
1989-08-26T12:01:26.300 ,1,0,0.,1.2,0.,1.2,0.,1.2,0.,1.2
1989-08-26T12:01:27.500 ,1,0,0.,1.2,0.,1.2,0.,1.2,0.,1.2
1989-08-26T12:01:28.700 ,1,0,1.,1.2,0.,1.2,0.,1.2,0.,1.2
1989-08-26T12:01:29.900 ,1,0,0.,1.2,0.,1.2,0.,1.2,0.,1.2
1989-08-26T12:01:31.100 ,1,0,0.,1.2,0.,1.2,0.,1.2,0.,1.2
1989-08-26T12:01:32.300 ,1,0,0.,1.2,0.,1.2,0.,1.2,0.,1.2
1989-08-26T12:01:33.500 ,1,0,0.,1.2,0.,1.2,0.,1.2,0.,1.2
1989-08-26T12:01:34.700 ,1,0,0.,1.2,0.,1.2,0.,1.2,0.,1.2
1989-08-26T12:01:35.900 ,0,0,0.,1.2,0.,1.2,0.,1.2,0.,1.2
1989-08-26T12:01:37.100 ,0,0,0.,1.2,0.,1.2,0.,1.2,0.,1.2
1989-08-26T12:01:38.300 ,0,0,0.,1.2,0.,1.2,0.,1.2,0.,1.2
1989-08-26T12:01:39.500 ,0,0,0.,1.2,0.,1.2,0.,1.2,0.,1.2
1989-08-26T12:01:40.700 ,0,0,0.,1.2,0.,1.2,0.,1.2,0.,1.2
1989-08-26T12:01:41.900 ,0,0,0.,1.2,0.,1.2,0.,1.2,0.,1.2
1989-08-26T12:01:43.100 ,0,0,0.,1.2,0.,1.2,0.,1.2,0.,1.2
1989-08-26T12:01:44.300 ,0,0,0.,1.2,0.,1.2,0.,1.2,0.,1.2
1989-08-26T12:01:45.500 ,0,0,0.,1.2,0.,1.2,0.,1.2,0.,1.2
1989-08-26T12:01:46.700 ,0,0,0.,1.2,0.,1.2,0.,1.2,0.,1.2
1989-08-26T12:01:47.900 ,0,0,1.,1.2,0.,1.2,0.,1.2,0.,1.2
1989-08-26T12:01:49.100 ,0,0,0.,1.2,0.,1.2,0.,1.2,0.,1.2
1989-08-26T12:01:50.300 ,0,0,0.,1.2,0.,1.2,0.,1.2,0.,1.2
1989-08-26T12:01:51.500 ,0,0,0.,1.2,0.,1.2,0.,1.2,0.,1.2
1989-08-26T12:01:52.700 ,0,0,0.,1.2,0.,1.2,0.,1.2,0.,1.2
1989-08-26T12:01:53.900 ,0,0,0.,1.2,0.,1.2,0.,1.2,0.,1.2
1989-08-26T12:01:55.100 ,0,0,0.,1.2,0.,1.2,0.,1.2,0.,1.2
1989-08-26T12:01:56.300 ,0,0,0.,1.2,0.,1.2,0.,1.2,0.,1.2
1989-08-26T12:01:57.500 ,0,0,0.,1.2,0.,1.2,0.,1.2,0.,1.2
1989-08-26T12:01:58.700 ,0,0,1.,1.2,0.,1.2,0.,1.2,0.,1.2
1989-08-26T12:01:59.900 ,0,0,0.,1.2,0.,1.2,0.,1.2,0.,1.2
1989-08-26T12:02:01.100 ,0,0,0.,1.2,0.,1.2,0.,1.2,0.,1.2
1989-08-26T12:02:02.300 ,0,0,0.,1.2,0.,1.2,0.,1.2,0.,1.2
1989-08-26T12:02:03.500 ,0,0,0.,1.2,0.,1.2,0.,1.2,0.,1.2
1989-08-26T12:02:04.700 ,0,0,0.,1.2,0.,1.2,0.,1.2,0.,1.2
1989-08-26T12:02:05.900 ,0,0,0.,1.2,0.,1.2,0.,1.2,0.,1.2
1989-08-26T12:02:07.100 ,0,0,0.,1.2,0.,1.2,0.,1.2,0.,1.2
1989-08-26T12:02:08.300 ,0,0,0.,1.2,0.,1.2,0.,1.2,0.,1.2
1989-08-26T12:02:09.500 ,0,0,0.,1.2,0.,1.2,0.,1.2,0.,1.2
1989-08-26T12:02:10.700 ,0,0,0.,1.2,0.,1.2,0.,1.2,0.,1.2
1989-08-26T12:02:11.900 ,0,0,0.,1.2,0.,1.2,0.,1.2,0.,1.2
1989-08-26T12:02:13.100 ,0,0,0.,1.2,0.,1.2,0.,1.2,0.,1.2
1989-08-26T12:02:14.300 ,0,0,0.,1.2,0.,1.2,0.,1.2,0.,1.2
1989-08-26T12:02:15.500 ,0,0,0.,1.2,0.,1.2,0.,1.2,0.,1.2
1989-08-26T12:02:16.700 ,0,0,0.,1.2,0.,1.2,0.,1.2,0.,1.2
1989-08-26T12:02:17.900 ,0,0,0.,1.2,0.,1.2,0.,1.2,0.,1.2
1989-08-26T12:02:19.100 ,0,0,0.,1.2,0.,1.2,0.,1.2,0.,1.2
1989-08-26T12:02:20.300 ,0,0,0.,1.2,0.,1.2,0.,1.2,0.,1.2
1989-08-26T12:02:21.500 ,0,0,0.,1.2,0.,1.2,0.,1.2,0.,1.2
1989-08-26T12:02:22.700 ,0,0,0.,1.2,0.,1.2,0.,1.2,0.,1.2
1989-08-26T12:02:23.900 ,0,0,0.,1.2,0.,1.2,0.,1.2,0.,1.2
1989-08-26T12:02:25.100 ,0,0,0.,1.2,0.,1.2,0.,1.2,0.,1.2
1989-08-26T12:02:26.300 ,0,0,0.,1.2,0.,1.2,0.,1.2,0.,1.2
1989-08-26T12:02:27.500 ,0,0,0.,1.2,0.,1.2,0.,1.2,0.,1.2
1989-08-26T12:02:28.700 ,0,0,0.,1.2,0.,1.2,0.,1.2,0.,1.2
1989-08-26T12:02:29.900 ,0,0,0.,1.2,0.,1.2,0.,1.2,0.,1.2
1989-08-26T12:02:31.100 ,0,0,0.,1.2,0.,1.2,0.,1.2,0.,1.2
1989-08-26T12:02:32.300 ,0,0,0.,1.2,0.,1.2,0.,1.2,0.,1.2
1989-08-26T12:02:33.500 ,0,0,0.,1.2,0.,1.2,0.,1.2,0.,1.2
1989-08-26T12:02:34.700 ,0,0,0.,1.2,0.,1.2,0.,1.2,0.,1.2
1989-08-26T12:02:35.900 ,0,0,0.,1.2,0.,1.2,0.,1.2,0.,1.2
1989-08-26T12:02:37.100 ,0,0,0.,1.2,0.,1.2,0.,1.2,0.,1.2
1989-08-26T12:02:38.300 ,0,0,0.,1.2,0.,1.2,0.,1.2,0.,1.2
1989-08-26T12:02:39.500 ,0,0,0.,1.2,0.,1.2,0.,1.2,0.,1.2
1989-08-26T12:02:40.700 ,0,0,0.,1.2,0.,1.2,0.,1.2,0.,1.2
1989-08-26T12:02:41.900 ,0,0,0.,1.2,0.,1.2,0.,1.2,0.,1.2
1989-08-26T12:02:43.100 ,0,0,0.,1.2,0.,1.2,0.,1.2,0.,1.2
1989-08-26T12:02:44.300 ,0,0,0.,1.2,0.,1.2,0.,1.2,0.,1.2
1989-08-26T12:02:45.500 ,0,0,0.,1.2,0.,1.2,0.,1.2,0.,1.2
1989-08-26T12:02:46.700 ,0,0,0.,1.2,0.,1.2,0.,1.2,0.,1.2
1989-08-26T12:02:47.900 ,0,0,0.,1.2,0.,1.2,0.,1.2,0.,1.2
1989-08-26T12:02:49.100 ,0,0,0.,1.2,0.,1.2,0.,1.2,0.,1.2
1989-08-26T12:02:50.300 ,0,0,0.,1.2,0.,1.2,0.,1.2,0.,1.2
1989-08-26T12:02:51.500 ,0,0,0.,1.2,0.,1.2,0.,1.2,0.,1.2
1989-08-26T12:02:52.700 ,0,0,0.,1.2,0.,1.2,0.,1.2,0.,1.2
1989-08-26T12:02:53.900 ,0,0,0.,1.2,0.,1.2,0.,1.2,0.,1.2
1989-08-26T12:02:55.100 ,0,0,0.,1.2,0.,1.2,0.,1.2,0.,1.2
1989-08-26T12:02:56.300 ,0,0,0.,1.2,0.,1.2,0.,1.2,0.,1.2
1989-08-26T12:02:57.500 ,0,0,0.,1.2,0.,1.2,0.,1.2,0.,1.2
1989-08-26T12:02:58.700 ,0,0,0.,1.2,0.,1.2,0.,1.2,0.,1.2
1989-08-26T12:02:59.900 ,0,0,0.,1.2,0.,1.2,0.,1.2,0.,1.2
1989-08-26T12:03:01.100 ,0,0,0.,1.2,0.,1.2,0.,1.2,0.,1.2
1989-08-26T12:03:02.300 ,0,0,0.,1.2,0.,1.2,0.,1.2,0.,1.2
1989-08-26T12:03:03.500 ,0,0,0.,1.2,0.,1.2,0.,1.2,0.,1.2
1989-08-26T12:03:04.700 ,0,0,0.,1.2,0.,1.2,0.,1.2,0.,1.2
1989-08-26T12:03:05.900 ,0,0,0.,1.2,0.,1.2,0.,1.2,0.,1.2
1989-08-26T12:03:07.100 ,0,0,0.,1.2,0.,1.2,0.,1.2,0.,1.2
1989-08-26T12:03:08.300 ,0,0,0.,1.2,0.,1.2,0.,1.2,0.,1.2
1989-08-26T12:03:09.500 ,0,0,0.,1.2,0.,1.2,0.,1.2,0.,1.2
1989-08-26T12:03:10.700 ,0,0,0.,1.2,0.,1.2,0.,1.2,0.,1.2
1989-08-26T12:03:11.900 ,1,0,0.,1.2,0.,1.2,0.,1.2,0.,1.2
1989-08-26T12:03:13.100 ,1,0,0.,1.2,0.,1.2,0.,1.2,0.,1.2
1989-08-26T12:03:14.300 ,1,0,0.,1.2,0.,1.2,0.,1.2,0.,1.2
1989-08-26T12:03:15.500 ,1,0,0.,1.2,0.,1.2,0.,1.2,0.,1.2
1989-08-26T12:03:16.700 ,1,0,0.,1.2,0.,1.2,0.,1.2,0.,1.2
1989-08-26T12:03:17.900 ,1,0,0.,1.2,0.,1.2,0.,1.2,0.,1.2
1989-08-26T12:03:19.100 ,1,0,0.,1.2,0.,1.2,0.,1.2,0.,1.2
1989-08-26T12:03:20.300 ,1,0,1.,1.2,0.,1.2,0.,1.2,0.,1.2
1989-08-26T12:03:21.500 ,1,0,0.,1.2,0.,1.2,0.,1.2,0.,1.2
1989-08-26T12:03:22.700 ,1,0,0.,1.2,0.,1.2,0.,1.2,0.,1.2
1989-08-26T12:03:23.900 ,1,0,0.,1.2,0.,1.2,0.,1.2,0.,1.2
1989-08-26T12:03:25.100 ,1,0,0.,1.2,0.,1.2,0.,1.2,0.,1.2
1989-08-26T12:03:26.300 ,1,0,0.,1.2,0.,1.2,0.,1.2,0.,1.2
1989-08-26T12:03:27.500 ,1,0,0.,1.2,0.,1.2,0.,1.2,0.,1.2
1989-08-26T12:03:28.700 ,1,0,0.,1.2,0.,1.2,0.,1.2,0.,1.2
1989-08-26T12:03:29.900 ,1,0,0.,1.2,0.,1.2,0.,1.2,0.,1.2
1989-08-26T12:03:31.100 ,1,0,0.,1.2,0.,1.2,0.,1.2,0.,1.2
1989-08-26T12:03:32.300 ,1,0,0.,1.2,0.,1.2,0.,1.2,0.,1.2
1989-08-26T12:03:33.500 ,1,0,0.,1.2,0.,1.2,0.,1.2,0.,1.2
1989-08-26T12:03:34.700 ,1,0,0.,1.2,0.,1.2,0.,1.2,0.,1.2
1989-08-26T12:03:35.900 ,1,0,0.,1.2,0.,1.2,0.,1.2,0.,1.2
1989-08-26T12:03:37.100 ,1,0,1.,1.2,0.,1.2,0.,1.2,0.,1.2
1989-08-26T12:03:38.300 ,1,0,0.,1.2,0.,1.2,0.,1.2,0.,1.2
1989-08-26T12:03:39.500 ,1,0,1.,1.2,0.,1.2,0.,1.2,0.,1.2
1989-08-26T12:03:40.700 ,1,0,0.,1.2,0.,1.2,0.,1.2,0.,1.2
1989-08-26T12:03:41.900 ,1,0,0.,1.2,0.,1.2,0.,1.2,0.,1.2
1989-08-26T12:03:43.100 ,1,0,0.,1.2,0.,1.2,0.,1.2,0.,1.2
1989-08-26T12:03:44.300 ,1,0,0.,1.2,0.,1.2,0.,1.2,0.,1.2
1989-08-26T12:03:45.500 ,1,0,1.,1.2,0.,1.2,0.,1.2,0.,1.2
1989-08-26T12:03:46.700 ,1,0,0.,1.2,0.,1.2,0.,1.2,0.,1.2
1989-08-26T12:03:47.900 ,1,0,0.,1.2,0.,1.2,0.,1.2,0.,1.2
1989-08-26T12:03:49.100 ,1,0,0.,1.2,0.,1.2,0.,1.2,0.,1.2
1989-08-26T12:03:50.300 ,1,0,1.,1.2,0.,1.2,0.,1.2,0.,1.2
1989-08-26T12:03:51.500 ,1,0,0.,1.2,0.,1.2,0.,1.2,0.,1.2
1989-08-26T12:03:52.700 ,1,0,0.,1.2,0.,1.2,0.,1.2,0.,1.2
1989-08-26T12:03:53.900 ,1,0,0.,1.2,0.,1.2,0.,1.2,0.,1.2
1989-08-26T12:03:55.100 ,1,0,0.,1.2,0.,1.2,0.,1.2,0.,1.2
1989-08-26T12:03:56.300 ,1,0,0.,1.2,0.,1.2,0.,1.2,0.,1.2
1989-08-26T12:03:57.500 ,1,0,0.,1.2,0.,1.2,0.,1.2,0.,1.2
1989-08-26T12:03:58.700 ,1,0,0.,1.2,0.,1.2,0.,1.2,0.,1.2
1989-08-26T12:03:59.900 ,2,0,0.,1.2,0.,1.2,0.,1.2,0.,1.2
1989-08-26T12:04:01.100 ,2,0,0.,1.2,0.,1.2,0.,1.2,0.,1.2
1989-08-26T12:04:02.300 ,2,0,0.,1.2,0.,1.2,0.,1.2,0.,1.2
1989-08-26T12:04:03.500 ,2,0,0.,1.2,0.,1.2,0.,1.2,0.,1.2
1989-08-26T12:04:04.700 ,2,0,0.,1.2,0.,1.2,0.,1.2,0.,1.2
1989-08-26T12:04:05.900 ,2,0,0.,1.2,0.,1.2,0.,1.2,0.,1.2
1989-08-26T12:04:07.100 ,2,0,1.,1.2,0.,1.2,0.,1.2,0.,1.2
1989-08-26T12:04:08.300 ,2,0,0.,1.2,0.,1.2,0.,1.2,0.,1.2
1989-08-26T12:04:09.500 ,2,0,1.,1.2,0.,1.2,0.,1.2,0.,1.2
1989-08-26T12:04:10.700 ,2,0,0.,1.2,0.,1.2,0.,1.2,0.,1.2
1989-08-26T12:04:11.900 ,2,0,0.,1.2,0.,1.2,0.,1.2,0.,1.2
1989-08-26T12:04:13.100 ,2,0,0.,1.2,0.,1.2,0.,1.2,0.,1.2
1989-08-26T12:04:14.300 ,2,0,0.,1.2,0.,1.2,0.,1.2,0.,1.2
1989-08-26T12:04:15.500 ,2,0,0.,1.2,0.,1.2,0.,1.2,0.,1.2
1989-08-26T12:04:16.700 ,2,0,0.,1.2,0.,1.2,0.,1.2,0.,1.2
1989-08-26T12:04:17.900 ,2,0,0.,1.2,0.,1.2,0.,1.2,0.,1.2
1989-08-26T12:04:19.100 ,2,0,0.,1.2,0.,1.2,0.,1.2,0.,1.2
1989-08-26T12:04:20.300 ,2,0,0.,1.2,0.,1.2,0.,1.2,0.,1.2
1989-08-26T12:04:21.500 ,2,0,0.,1.2,0.,1.2,0.,1.2,0.,1.2
1989-08-26T12:04:22.700 ,2,0,0.,1.2,0.,1.2,0.,1.2,0.,1.2
1989-08-26T12:04:23.900 ,2,0,0.,1.2,0.,1.2,0.,1.2,0.,1.2
1989-08-26T12:04:25.100 ,2,0,0.,1.2,0.,1.2,0.,1.2,0.,1.2
1989-08-26T12:04:26.300 ,2,0,0.,1.2,0.,1.2,0.,1.2,0.,1.2
1989-08-26T12:04:27.500 ,2,0,0.,1.2,0.,1.2,0.,1.2,0.,1.2
1989-08-26T12:04:28.700 ,2,0,0.,1.2,0.,1.2,0.,1.2,0.,1.2
1989-08-26T12:04:29.900 ,2,0,0.,1.2,0.,1.2,0.,1.2,0.,1.2
1989-08-26T12:04:31.100 ,2,0,0.,1.2,0.,1.2,0.,1.2,0.,1.2
1989-08-26T12:04:32.300 ,2,0,0.,1.2,0.,1.2,0.,1.2,0.,1.2
1989-08-26T12:04:33.500 ,2,0,0.,1.2,0.,1.2,0.,1.2,0.,1.2
1989-08-26T12:04:34.700 ,2,0,0.,1.2,0.,1.2,0.,1.2,0.,1.2
1989-08-26T12:04:35.900 ,2,0,0.,1.2,0.,1.2,0.,1.2,0.,1.2
1989-08-26T12:04:37.100 ,2,0,0.,1.2,0.,1.2,0.,1.2,0.,1.2
1989-08-26T12:04:38.300 ,2,0,0.,1.2,0.,1.2,0.,1.2,0.,1.2
1989-08-26T12:04:39.500 ,2,0,0.,1.2,0.,1.2,0.,1.2,0.,1.2
1989-08-26T12:04:40.700 ,2,0,0.,1.2,0.,1.2,0.,1.2,0.,1.2
1989-08-26T12:04:41.900 ,2,0,0.,1.2,0.,1.2,0.,1.2,0.,1.2
1989-08-26T12:04:43.100 ,2,0,0.,1.2,0.,1.2,0.,1.2,0.,1.2
1989-08-26T12:04:44.300 ,2,0,0.,1.2,0.,1.2,0.,1.2,0.,1.2
1989-08-26T12:04:45.500 ,2,0,0.,1.2,0.,1.2,0.,1.2,0.,1.2
1989-08-26T12:04:46.700 ,2,0,0.,1.2,0.,1.2,0.,1.2,0.,1.2
1989-08-26T12:04:47.900 ,3,0,0.,1.2,0.,1.2,0.,1.2,0.,1.2
1989-08-26T12:04:49.100 ,3,0,0.,1.2,0.,1.2,0.,1.2,0.,1.2
1989-08-26T12:04:50.300 ,3,0,0.,1.2,0.,1.2,0.,1.2,0.,1.2
1989-08-26T12:04:51.500 ,3,0,0.,1.2,0.,1.2,0.,1.2,0.,1.2
1989-08-26T12:04:52.700 ,3,0,0.,1.2,0.,1.2,0.,1.2,0.,1.2
1989-08-26T12:04:53.900 ,3,0,0.,1.2,0.,1.2,0.,1.2,0.,1.2
1989-08-26T12:04:55.100 ,3,0,0.,1.2,0.,1.2,0.,1.2,0.,1.2
1989-08-26T12:04:56.300 ,3,0,0.,1.2,0.,1.2,0.,1.2,0.,1.2
1989-08-26T12:04:57.500 ,3,0,0.,1.2,0.,1.2,0.,1.2,0.,1.2
1989-08-26T12:04:58.700 ,3,0,0.,1.2,0.,1.2,0.,1.2,0.,1.2
1989-08-26T12:04:59.900 ,3,0,0.,1.2,0.,1.2,0.,1.2,0.,1.2
1989-08-26T12:05:01.100 ,3,0,0.,1.2,0.,1.2,0.,1.2,0.,1.2
1989-08-26T12:05:02.300 ,3,0,0.,1.2,0.,1.2,0.,1.2,0.,1.2
1989-08-26T12:05:03.500 ,3,0,0.,1.2,0.,1.2,0.,1.2,0.,1.2
1989-08-26T12:05:04.700 ,3,0,0.,1.2,0.,1.2,0.,1.2,0.,1.2
1989-08-26T12:05:05.900 ,3,0,0.,1.2,0.,1.2,0.,1.2,0.,1.2
1989-08-26T12:05:07.100 ,3,0,0.,1.2,0.,1.2,0.,1.2,0.,1.2
1989-08-26T12:05:08.300 ,3,0,0.,1.2,0.,1.2,0.,1.2,0.,1.2
1989-08-26T12:05:09.500 ,3,0,0.,1.2,0.,1.2,0.,1.2,0.,1.2
1989-08-26T12:05:10.700 ,3,0,0.,1.2,0.,1.2,0.,1.2,0.,1.2
1989-08-26T12:05:11.900 ,3,0,0.,1.2,0.,1.2,0.,1.2,0.,1.2
1989-08-26T12:05:13.100 ,3,0,0.,1.2,0.,1.2,0.,1.2,0.,1.2
1989-08-26T12:05:14.300 ,3,0,0.,1.2,0.,1.2,0.,1.2,0.,1.2
1989-08-26T12:05:15.500 ,3,0,0.,1.2,0.,1.2,0.,1.2,0.,1.2
1989-08-26T12:05:16.700 ,3,0,0.,1.2,0.,1.2,0.,1.2,0.,1.2
1989-08-26T12:05:17.900 ,3,0,0.,1.2,0.,1.2,0.,1.2,0.,1.2
1989-08-26T12:05:19.100 ,3,0,0.,1.2,0.,1.2,0.,1.2,0.,1.2
1989-08-26T12:05:20.300 ,3,0,0.,1.2,0.,1.2,0.,1.2,0.,1.2
1989-08-26T12:05:21.500 ,3,0,0.,1.2,0.,1.2,0.,1.2,0.,1.2
1989-08-26T12:05:22.700 ,3,0,0.,1.2,0.,1.2,0.,1.2,0.,1.2
1989-08-26T12:05:23.900 ,3,0,0.,1.2,0.,1.2,0.,1.2,0.,1.2
1989-08-26T12:05:25.100 ,3,0,0.,1.2,0.,1.2,0.,1.2,0.,1.2
1989-08-26T12:05:26.300 ,3,0,0.,1.2,0.,1.2,0.,1.2,0.,1.2
1989-08-26T12:05:27.500 ,3,0,0.,1.2,0.,1.2,0.,1.2,0.,1.2
1989-08-26T12:05:28.700 ,3,0,0.,1.2,0.,1.2,0.,1.2,0.,1.2
1989-08-26T12:05:29.900 ,3,0,0.,1.2,0.,1.2,0.,1.2,0.,1.2
1989-08-26T12:05:31.100 ,3,0,0.,1.2,0.,1.2,0.,1.2,0.,1.2
1989-08-26T12:05:32.300 ,3,0,0.,1.2,0.,1.2,0.,1.2,0.,1.2
1989-08-26T12:05:33.500 ,3,0,0.,1.2,0.,1.2,0.,1.2,0.,1.2
1989-08-26T12:05:34.700 ,3,0,0.,1.2,0.,1.2,0.,1.2,0.,1.2
1989-08-26T12:05:35.900 ,4,0,0.,1.2,0.,1.2,0.,1.2,0.,1.2
1989-08-26T12:05:37.100 ,4,0,0.,1.2,0.,1.2,0.,1.2,0.,1.2
1989-08-26T12:05:38.300 ,4,0,0.,1.2,0.,1.2,0.,1.2,0.,1.2
1989-08-26T12:05:39.500 ,4,0,0.,1.2,0.,1.2,0.,1.2,0.,1.2
1989-08-26T12:05:40.700 ,4,0,0.,1.2,0.,1.2,0.,1.2,0.,1.2
1989-08-26T12:05:41.900 ,4,0,0.,1.2,0.,1.2,0.,1.2,0.,1.2
1989-08-26T12:05:43.100 ,4,0,0.,1.2,0.,1.2,0.,1.2,0.,1.2
1989-08-26T12:05:44.300 ,4,0,0.,1.2,0.,1.2,0.,1.2,0.,1.2
1989-08-26T12:05:45.500 ,4,0,1.,1.2,0.,1.2,0.,1.2,0.,1.2
1989-08-26T12:05:46.700 ,4,0,0.,1.2,0.,1.2,0.,1.2,0.,1.2
1989-08-26T12:05:47.900 ,4,0,0.,1.2,0.,1.2,0.,1.2,0.,1.2
1989-08-26T12:05:49.100 ,4,0,0.,1.2,0.,1.2,0.,1.2,0.,1.2
1989-08-26T12:05:50.300 ,4,0,0.,1.2,0.,1.2,0.,1.2,0.,1.2
1989-08-26T12:05:51.500 ,4,0,0.,1.2,0.,1.2,0.,1.2,0.,1.2
1989-08-26T12:05:52.700 ,4,0,0.,1.2,0.,1.2,0.,1.2,0.,1.2
1989-08-26T12:05:53.900 ,4,0,0.,1.2,0.,1.2,0.,1.2,0.,1.2
1989-08-26T12:05:55.100 ,4,0,0.,1.2,0.,1.2,0.,1.2,0.,1.2
1989-08-26T12:05:56.300 ,4,0,0.,1.2,0.,1.2,0.,1.2,0.,1.2
1989-08-26T12:05:57.500 ,4,0,0.,1.2,0.,1.2,0.,1.2,0.,1.2
1989-08-26T12:05:58.700 ,4,0,0.,1.2,0.,1.2,0.,1.2,0.,1.2
1989-08-26T12:05:59.900 ,4,0,0.,1.2,0.,1.2,0.,1.2,0.,1.2
1989-08-26T12:06:01.100 ,4,0,0.,1.2,0.,1.2,0.,1.2,0.,1.2
1989-08-26T12:06:02.300 ,4,0,0.,1.2,0.,1.2,0.,1.2,0.,1.2
1989-08-26T12:06:03.500 ,4,0,0.,1.2,0.,1.2,0.,1.2,0.,1.2
1989-08-26T12:06:04.700 ,4,0,0.,1.2,0.,1.2,0.,1.2,0.,1.2
1989-08-26T12:06:05.900 ,4,0,1.,1.2,0.,1.2,0.,1.2,0.,1.2
1989-08-26T12:06:07.100 ,4,0,0.,1.2,0.,1.2,0.,1.2,0.,1.2
1989-08-26T12:06:08.300 ,4,0,0.,1.2,0.,1.2,0.,1.2,0.,1.2
1989-08-26T12:06:09.500 ,4,0,0.,1.2,0.,1.2,0.,1.2,0.,1.2
1989-08-26T12:06:10.700 ,4,0,0.,1.2,0.,1.2,0.,1.2,0.,1.2
1989-08-26T12:06:11.900 ,4,0,0.,1.2,0.,1.2,0.,1.2,0.,1.2
1989-08-26T12:06:13.100 ,4,0,0.,1.2,0.,1.2,0.,1.2,0.,1.2
1989-08-26T12:06:14.300 ,4,0,0.,1.2,0.,1.2,0.,1.2,0.,1.2
1989-08-26T12:06:15.500 ,4,0,0.,1.2,0.,1.2,0.,1.2,0.,1.2
1989-08-26T12:06:16.700 ,4,0,0.,1.2,0.,1.2,0.,1.2,0.,1.2
1989-08-26T12:06:17.900 ,4,0,0.,1.2,0.,1.2,0.,1.2,0.,1.2
1989-08-26T12:06:19.100 ,4,0,0.,1.2,0.,1.2,0.,1.2,0.,1.2
1989-08-26T12:06:20.300 ,4,0,0.,1.2,0.,1.2,0.,1.2,0.,1.2
1989-08-26T12:06:21.500 ,4,0,0.,1.2,0.,1.2,0.,1.2,0.,1.2
1989-08-26T12:06:22.700 ,4,0,0.,1.2,0.,1.2,1.,1.2,0.,1.2
1989-08-26T12:06:23.900 ,5,0,0.,1.2,0.,1.2,0.,1.2,0.,1.2
1989-08-26T12:06:25.100 ,5,0,0.,1.2,0.,1.2,0.,1.2,0.,1.2
1989-08-26T12:06:26.300 ,5,0,0.,1.2,0.,1.2,0.,1.2,0.,1.2
1989-08-26T12:06:27.500 ,5,0,0.,1.2,0.,1.2,0.,1.2,0.,1.2
1989-08-26T12:06:28.700 ,5,0,0.,1.2,0.,1.2,0.,1.2,0.,1.2
1989-08-26T12:06:29.900 ,5,0,0.,1.2,0.,1.2,0.,1.2,0.,1.2
1989-08-26T12:06:31.100 ,5,0,0.,1.2,0.,1.2,0.,1.2,0.,1.2
1989-08-26T12:06:32.300 ,5,0,0.,1.2,0.,1.2,0.,1.2,0.,1.2
1989-08-26T12:06:33.500 ,5,0,0.,1.2,0.,1.2,0.,1.2,0.,1.2
1989-08-26T12:06:34.700 ,5,0,0.,1.2,0.,1.2,0.,1.2,0.,1.2
1989-08-26T12:06:35.900 ,5,0,0.,1.2,0.,1.2,0.,1.2,0.,1.2
1989-08-26T12:06:37.100 ,5,0,0.,1.2,0.,1.2,1.,1.2,0.,1.2
1989-08-26T12:06:38.300 ,5,0,0.,1.2,0.,1.2,0.,1.2,0.,1.2
1989-08-26T12:06:39.500 ,5,0,0.,1.2,0.,1.2,0.,1.2,0.,1.2
1989-08-26T12:06:40.700 ,5,0,0.,1.2,0.,1.2,0.,1.2,0.,1.2
1989-08-26T12:06:41.900 ,5,0,0.,1.2,0.,1.2,0.,1.2,0.,1.2
1989-08-26T12:06:43.100 ,5,0,0.,1.2,0.,1.2,0.,1.2,0.,1.2
1989-08-26T12:06:44.300 ,5,0,0.,1.2,0.,1.2,0.,1.2,0.,1.2
1989-08-26T12:06:45.500 ,5,0,0.,1.2,0.,1.2,0.,1.2,0.,1.2
1989-08-26T12:06:46.700 ,5,0,0.,1.2,0.,1.2,0.,1.2,0.,1.2
1989-08-26T12:06:47.900 ,5,0,0.,1.2,0.,1.2,0.,1.2,0.,1.2
1989-08-26T12:06:49.100 ,5,0,0.,1.2,0.,1.2,0.,1.2,0.,1.2
1989-08-26T12:06:50.300 ,5,0,0.,1.2,0.,1.2,0.,1.2,0.,1.2
1989-08-26T12:06:51.500 ,5,0,0.,1.2,0.,1.2,0.,1.2,0.,1.2
1989-08-26T12:06:52.700 ,5,0,0.,1.2,0.,1.2,0.,1.2,0.,1.2
1989-08-26T12:06:53.900 ,5,0,0.,1.2,0.,1.2,0.,1.2,0.,1.2
1989-08-26T12:06:55.100 ,5,0,0.,1.2,0.,1.2,0.,1.2,0.,1.2
1989-08-26T12:06:56.300 ,5,0,0.,1.2,0.,1.2,0.,1.2,0.,1.2
1989-08-26T12:06:57.500 ,5,0,0.,1.2,0.,1.2,0.,1.2,0.,1.2
1989-08-26T12:06:58.700 ,5,0,0.,1.2,0.,1.2,0.,1.2,0.,1.2
1989-08-26T12:06:59.900 ,5,0,0.,1.2,0.,1.2,0.,1.2,0.,1.2
1989-08-26T12:07:01.100 ,5,0,0.,1.2,0.,1.2,0.,1.2,0.,1.2
1989-08-26T12:07:02.300 ,5,0,0.,1.2,0.,1.2,0.,1.2,0.,1.2
1989-08-26T12:07:03.500 ,5,0,0.,1.2,0.,1.2,0.,1.2,0.,1.2
1989-08-26T12:07:04.700 ,5,0,0.,1.2,0.,1.2,0.,1.2,0.,1.2
1989-08-26T12:07:05.900 ,5,0,0.,1.2,0.,1.2,0.,1.2,0.,1.2
1989-08-26T12:07:07.100 ,5,0,0.,1.2,0.,1.2,0.,1.2,0.,1.2
1989-08-26T12:07:08.300 ,5,0,0.,1.2,0.,1.2,0.,1.2,0.,1.2
1989-08-26T12:07:09.500 ,5,0,0.,1.2,0.,1.2,0.,1.2,0.,1.2
1989-08-26T12:07:10.700 ,5,0,0.,1.2,0.,1.2,0.,1.2,0.,1.2
1989-08-26T12:07:11.900 ,6,0,0.,1.2,0.,1.2,0.,1.2,0.,1.2
1989-08-26T12:07:13.100 ,6,0,0.,1.2,0.,1.2,0.,1.2,0.,1.2
1989-08-26T12:07:14.300 ,6,0,0.,1.2,0.,1.2,0.,1.2,0.,1.2
1989-08-26T12:07:15.500 ,6,0,1.,1.2,0.,1.2,0.,1.2,0.,1.2
1989-08-26T12:07:16.700 ,6,0,0.,1.2,0.,1.2,0.,1.2,0.,1.2
1989-08-26T12:07:17.900 ,6,0,0.,1.2,0.,1.2,0.,1.2,0.,1.2
1989-08-26T12:07:19.100 ,6,0,0.,1.2,0.,1.2,0.,1.2,0.,1.2
1989-08-26T12:07:20.300 ,6,0,0.,1.2,0.,1.2,0.,1.2,0.,1.2
1989-08-26T12:07:21.500 ,6,0,0.,1.2,0.,1.2,0.,1.2,0.,1.2
1989-08-26T12:07:22.700 ,6,0,0.,1.2,0.,1.2,0.,1.2,0.,1.2
1989-08-26T12:07:23.900 ,6,0,0.,1.2,0.,1.2,0.,1.2,0.,1.2
1989-08-26T12:07:25.100 ,6,0,0.,1.2,0.,1.2,0.,1.2,0.,1.2
1989-08-26T12:07:26.300 ,6,0,0.,1.2,0.,1.2,0.,1.2,0.,1.2
1989-08-26T12:07:27.500 ,6,0,0.,1.2,0.,1.2,0.,1.2,0.,1.2
1989-08-26T12:07:28.700 ,6,0,0.,1.2,0.,1.2,0.,1.2,0.,1.2
1989-08-26T12:07:29.900 ,6,0,0.,1.2,0.,1.2,0.,1.2,0.,1.2
1989-08-26T12:07:31.100 ,6,0,0.,1.2,0.,1.2,0.,1.2,0.,1.2
1989-08-26T12:07:32.300 ,6,0,0.,1.2,0.,1.2,0.,1.2,0.,1.2
1989-08-26T12:07:33.500 ,6,0,0.,1.2,0.,1.2,0.,1.2,0.,1.2
1989-08-26T12:07:34.700 ,6,0,0.,1.2,0.,1.2,0.,1.2,0.,1.2
1989-08-26T12:07:35.900 ,6,0,0.,1.2,0.,1.2,0.,1.2,0.,1.2
1989-08-26T12:07:37.100 ,6,0,0.,1.2,0.,1.2,0.,1.2,0.,1.2
1989-08-26T12:07:38.300 ,6,0,0.,1.2,0.,1.2,0.,1.2,0.,1.2
1989-08-26T12:07:39.500 ,6,0,0.,1.2,0.,1.2,0.,1.2,0.,1.2
1989-08-26T12:07:40.700 ,6,0,0.,1.2,0.,1.2,0.,1.2,0.,1.2
1989-08-26T12:07:41.900 ,6,0,0.,1.2,0.,1.2,0.,1.2,0.,1.2
1989-08-26T12:07:43.100 ,6,0,0.,1.2,0.,1.2,0.,1.2,0.,1.2
1989-08-26T12:07:44.300 ,6,0,0.,1.2,0.,1.2,0.,1.2,0.,1.2
1989-08-26T12:07:45.500 ,6,0,0.,1.2,0.,1.2,0.,1.2,0.,1.2
1989-08-26T12:07:46.700 ,6,0,0.,1.2,0.,1.2,0.,1.2,0.,1.2
1989-08-26T12:07:47.900 ,6,0,0.,1.2,0.,1.2,0.,1.2,0.,1.2
1989-08-26T12:07:49.100 ,6,0,0.,1.2,0.,1.2,0.,1.2,0.,1.2
1989-08-26T12:07:50.300 ,6,0,0.,1.2,0.,1.2,0.,1.2,0.,1.2
1989-08-26T12:07:51.500 ,6,0,0.,1.2,0.,1.2,0.,1.2,0.,1.2
1989-08-26T12:07:52.700 ,6,0,0.,1.2,0.,1.2,0.,1.2,0.,1.2
1989-08-26T12:07:53.900 ,6,0,0.,1.2,0.,1.2,0.,1.2,0.,1.2
1989-08-26T12:07:55.100 ,6,0,0.,1.2,0.,1.2,0.,1.2,0.,1.2
1989-08-26T12:07:56.300 ,6,0,0.,1.2,0.,1.2,0.,1.2,0.,1.2
1989-08-26T12:07:57.500 ,6,0,0.,1.2,0.,1.2,0.,1.2,0.,1.2
1989-08-26T12:07:58.700 ,6,0,0.,1.2,0.,1.2,0.,1.2,0.,1.2
1989-08-26T12:07:59.900 ,7,0,0.,1.2,0.,1.2,0.,1.2,0.,1.2
1989-08-26T12:08:01.100 ,7,0,0.,1.2,0.,1.2,0.,1.2,0.,1.2
1989-08-26T12:08:02.300 ,7,0,0.,1.2,0.,1.2,0.,1.2,0.,1.2
1989-08-26T12:08:03.500 ,7,0,0.,1.2,0.,1.2,0.,1.2,0.,1.2
1989-08-26T12:08:04.700 ,7,0,0.,1.2,0.,1.2,0.,1.2,0.,1.2
1989-08-26T12:08:05.900 ,7,0,0.,1.2,0.,1.2,0.,1.2,0.,1.2
1989-08-26T12:08:07.100 ,7,0,0.,1.2,0.,1.2,8.,1.2,0.,1.2
1989-08-26T12:08:08.300 ,7,0,0.,1.2,0.,1.2,8.,1.2,0.,1.2
1989-08-26T12:08:09.500 ,7,0,0.,1.2,0.,1.2,8.,1.2,0.,1.2
1989-08-26T12:08:10.700 ,7,0,0.,1.2,0.,1.2,10.,1.2,0.,1.2
1989-08-26T12:08:11.900 ,7,0,0.,1.2,0.,1.2,8.,1.2,0.,1.2
1989-08-26T12:08:13.100 ,7,0,0.,1.2,0.,1.2,8.,1.2,0.,1.2
1989-08-26T12:08:14.300 ,7,0,0.,1.2,0.,1.2,4.,1.2,0.,1.2
1989-08-26T12:08:15.500 ,7,0,0.,1.2,0.,1.2,5.,1.2,0.,1.2
1989-08-26T12:08:16.700 ,7,0,0.,1.2,0.,1.2,5.,1.2,0.,1.2
1989-08-26T12:08:17.900 ,7,0,0.,1.2,0.,1.2,9.,1.2,0.,1.2
1989-08-26T12:08:19.100 ,7,0,0.,1.2,0.,1.2,5.,1.2,0.,1.2
1989-08-26T12:08:20.300 ,7,0,0.,1.2,0.,1.2,4.,1.2,0.,1.2
1989-08-26T12:08:21.500 ,7,0,0.,1.2,0.,1.2,5.,1.2,0.,1.2
1989-08-26T12:08:22.700 ,7,0,0.,1.2,0.,1.2,5.,1.2,0.,1.2
1989-08-26T12:08:23.900 ,7,0,0.,1.2,0.,1.2,4.,1.2,0.,1.2
1989-08-26T12:08:25.100 ,7,0,0.,1.2,0.,1.2,4.,1.2,0.,1.2
1989-08-26T12:08:26.300 ,7,0,0.,1.2,0.,1.2,6.,1.2,0.,1.2
1989-08-26T12:08:27.500 ,7,0,0.,1.2,0.,1.2,6.,1.2,0.,1.2
1989-08-26T12:08:28.700 ,7,0,0.,1.2,0.,1.2,2.,1.2,0.,1.2
1989-08-26T12:08:29.900 ,7,0,0.,1.2,0.,1.2,6.,1.2,0.,1.2
1989-08-26T12:08:31.100 ,7,0,0.,1.2,0.,1.2,6.,1.2,0.,1.2
1989-08-26T12:08:32.300 ,7,0,0.,1.2,0.,1.2,8.,1.2,0.,1.2
1989-08-26T12:08:33.500 ,7,0,0.,1.2,0.,1.2,6.,1.2,0.,1.2
1989-08-26T12:08:34.700 ,7,0,0.,1.2,0.,1.2,4.,1.2,0.,1.2
1989-08-26T12:08:35.900 ,7,0,0.,1.2,0.,1.2,4.,1.2,0.,1.2
1989-08-26T12:08:37.100 ,7,0,0.,1.2,0.,1.2,8.,1.2,0.,1.2